This demonstration page uses our WeatherBlox Daily Observations layout. Learn more.

Left ArrowRight Arrow

Hourly Observations for June 29, 2022

Temp ( °F °C ) Dew Point ( °F °C ) Humidity (%) Winds ( mph kmh ) Pressure ( in mb ) Visibility ( mi km ) Precip ( " mm )
12:56 am 00:56 Clear 73 22.8 57 13.9 57 57 S 12 19 30.06 1018 10 16 0.00 0.00
1:56 am 01:56 Clear 71 21.7 57 13.9 61 61 SSW 13 20 30.06 1018 10 16 0.00 0.00
2:56 am 02:56 Clear 68 20 57 13.9 68 68 SSW 13 20 30.06 1018 10 16 0.00 0.00
3:56 am 03:56 Clear 65 18.3 57 13.9 76 76 SSW 9 15 30.06 1018 10 16 0.00 0.00
4:56 am 04:56 Clear 65 18.3 57 13.9 76 76 SSW 12 19 30.06 1018 10 16 0.00 0.00
5:56 am 05:56 Clear 64 17.8 57 13.9 78 78 SSW 12 19 30.06 1018 10 16 0.00 0.00
6:56 am 06:56 Sunny 64 17.8 57 13.9 78 78 S 12 19 30.06 1018 10 16 0.00 0.00
7:56 am 07:56 Sunny 69 20.6 58 14.4 68 68 S 10 17 30.06 1018 10 16 0.00 0.00
8:56 am 08:56 Sunny 74 23.3 60 15.6 62 62 S 13 20 30.06 1018 10 16 0.00 0.00
9:56 am 09:56 Sunny 78 25.6 62 16.7 58 58 SSW 17 28 30.06 1018 10 16 0.00 0.00
10:56 am 10:56 Sunny 82 27.8 64 17.8 55 55 S 15 24 30.04 1017 10 16 0.00 0.00
11:56 am 11:56 Sunny 86 30 62 16.7 45 45 SSW 16 26 30.02 1017 10 16 0.00 0.00
12:56 pm 12:56 Sunny 90 32.2 56 13.3 32 32 SSW 25 41 30.00 1016 10 16 0.00 0.00
1:56 pm 13:56 Sunny 91 32.8 59 15 34 34 S 25 41 29.98 1015 10 16 0.00 0.00
2:56 pm 14:56 Sunny 93 33.9 57 13.9 30 30 S 28 44 29.96 1014 10 16 0.00 0.00
3:56 pm 15:56 Sunny 92 33.3 52 11.1 26 26 S 30 48 29.93 1014 10 16 0.00 0.00
4:56 pm 16:56 Sunny 93 33.9 54 12.2 27 27 S 23 37 29.92 1013 10 16 0.00 0.00
5:56 pm 17:56 Sunny 91 32.8 57 13.9 32 32 S 22 35 29.92 1013 10 16 0.00 0.00
6:56 pm 18:56 Sunny 90 32.2 56 13.3 32 32 S 22 35 29.90 1012 10 16 0.00 0.00
7:56 pm 19:56 Sunny 86 30 56 13.3 36 36 S 22 35 29.89 1012 10 16 0.00 0.00
8:56 pm 20:56 Sunny 83 28.3 55 12.8 38 38 S 20 31 29.89 1012 10 16 0.00 0.00
9:56 pm 21:56 Clear 81 27.2 54 12.2 39 39 S 21 33 29.89 1012 10 16 0.00 0.00
10:56 pm 22:56 Clear 79 26.1 55 12.8 44 44 S 23 37 29.89 1012 10 16 0.00 0.00
11:56 pm 23:56 Clear 78 25.6 55 12.8 45 45 S 23 37 29.90 1012 10 16 0.00 0.00

Powered by AerisWeather